Simultaneous Nadir Overpasses (SNOs) Predictions

Prediction of SNOs between GOES-16 and AQUA Satellite Orbit:

Table of predicted SNOs for the next 14.0 days since TLE Epoch: 10/18/2019
Index Date Time (GOES-16) GOES-16 Lat,Lon AQUA Lat,Lon Distance(km) Time Diff (sec)
1 10/20/2019 06:17:17 -0.00, -75.20 -0.90, -70.94 484.24 80
2 10/20/2019 18:38:41 -0.00, -75.20 -0.23, -76.12 105.41 80
3 10/22/2019 18:29:10 0.00, -75.21 0.44, -73.18 231.15 80
4 10/23/2019 06:50:25 -0.00, -75.20 0.68, -78.33 355.54 80
5 10/25/2019 06:38:14 -0.01, -75.22 0.01, -75.38 18.29 80
6 10/27/2019 06:23:22 0.01, -75.23 -0.60, -72.42 320.34 80
7 10/27/2019 18:44:46 -0.02, -75.24 -0.50, -77.61 268.70 80
8 10/29/2019 18:35:14 -0.02, -75.27 0.12, -74.65 70.23 80
9 10/31/2019 18:20:22 -0.02, -75.29 0.74, -71.69 409.47 80
10 11/01/2019 06:44:18 0.03, -75.30 0.34, -76.85 176.51 80




NCC Satellite Simultaneous Nadir Overpasses (SNOs) Prediction Service
